Location: Rumah Dana
(3.1167°N, 113.0167°E)
Time: 03:18:51
(UTC+00:00)

SWIFT - Pass Details

Date: 20 January 2026
Orbit: 395 x 398 km, 20.6° (Epoch: 11 February)

Event Time Altitude Azimuth Distance (km) Brightness Sun altitude
Rises 10:47:37 0° 299° (WNW) 2,284 6.2 -3.1°
Reaches altitude 10° 10:49:45 10° 305° (NW) 1,432 5.0 -3.6°
Maximum altitude 10:52:56 49° 21° (NNE) 519 2.0 -4.3°
Drops below altitude 10° 10:56:10 10° 98° (E) 1,446 3.9 -5.1°
Enters shadow 10:57:34 - 102° (ESE) 2,001 4.7 -5.4°
